Station 51000 (LLNR 28005.9) - NORTHERN HAWAII ONE - 245NM NE of Honolulu HI Image indicating link to RSS feed of recent meteorological observations for station 51000


Conditions at 51000 as of
(12:30 pm HAST)
2230 GMT on 05/19/2024:
     

Click on the graph icon in the table below to see a time series plot of the last five days of that observation.

5-day plot - Wind Direction Wind Direction (WDIR): E ( 100 deg true )
5-day plot - Wind Speed Wind Speed (WSPD): 13.6 kts
5-day plot - Wind Gust Wind Gust (GST): 17.5 kts
5-day plot - Atmospheric Pressure Atmospheric Pressure (PRES):30.10 in
5-day plot - Air Temperature Air Temperature (ATMP): 73.6 °F
5-day plot - Water Temperature Water Temperature (WTMP): 75.2 °F
5-day plot - Dew Point Dew Point (DEWP): 66.4 °F
5-day plot - Wind Speed at 10 Meters Wind Speed at 10 meters (WSPD10M): 15.5 kts
5-day plot - Wind Speed at 20 Meters Wind Speed at 20 meters (WSPD20M): 17.5 kts
5-day plot -  Wind Speed, Wind Gust and Atmospheric Pressure Combined plot of Wind Speed, Gust, and Air Pressure
Supplemental Measurements
Highest 1-minute Wind Speed
Time (HAST)5-day plot - 1-Minute Wind Speed WSPD 5-day plot - 1-Minute Wind Direction WDIR
12:22 pm 15.5 kts-
Previous observations
TIME
(HAST)
5-day plot - Wind Direction
WDIR
 
5-day plot - Wind Speed
WSPD
kts
5-day plot - Wind Gust
GST
kts
5-day plot - Wave Height
WVHT
ft
5-day plot - Dominant Wave Period
DPD
sec
5-day plot - Average Wave Period
APD
sec
5-day plot - Mean Wave Direction
MWD
 
5-day plot - Atmospheric Pressure
PRES
in
5-day plot - Pressure Tendency
PTDY
in
5-day plot - Air Temperature
ATMP
°F
5-day plot - Water Temperature
WTMP
°F
5-day plot - Dew Point
DEWP
°F
5-day plot - Salinity
SAL
psu
5-day plot - Visibility
VIS
nmi
5-day plot - Tide (above MLLW)
TIDE
ft
2024-05-19 12:20 pm E 13.6 19.4 6.6 86.5ESE30.10- 73.8 75.2 66.2---
2024-05-19 12:10 pm E 13.6 17.5 6.6-6.5ESE30.10- 73.6 75.2 66.0---
2024-05-19 12:00 pm E 13.6 17.5----30.11+0.00 73.6 75.2 66.0---
2024-05-19 11:50 am E 13.6 15.5 7.5 86.6ESE30.12- 73.8 75.2 66.4---
2024-05-19 11:40 am E 11.7 15.5----30.12- 74.1 75.2 66.2---
2024-05-19 11:30 amESE 11.7 17.5----30.13- 73.9 75.2 65.5---
2024-05-19 11:20 amESE 11.7 15.5 6.6 86.5ESE30.13- 73.9 75.2 65.8---
2024-05-19 11:10 amESE 11.7 15.5 6.6-6.5ESE30.13- 73.9 75.2 66.4---
2024-05-19 11:00 amESE 13.6 17.5----30.13+0.03 73.6 75.2 66.2---
2024-05-19 10:50 am E 13.6 17.5 6.9 76.5ESE30.13- 73.8 75.2 67.1---
2024-05-19 10:40 am E 13.6 17.5----30.13- 73.8 75.2 66.6---
2024-05-19 10:30 amESE 13.6 17.5----30.13- 73.9 75.2 66.2---
2024-05-19 10:20 amESE 13.6 17.5 6.6 76.4 SE30.13- 73.9 75.2 66.2---
2024-05-19 10:10 amESE 13.6 19.4 6.6-6.4 SE30.13- 73.9 75.2 66.4---
2024-05-19 10:00 amESE 13.6 17.5----30.13+0.04 73.8 75.2 66.2---
2024-05-19 09:50 amESE 13.6 17.5 6.2 176.5 S30.12- 73.9 75.2 66.9---
2024-05-19 09:40 amESE 13.6 17.5 6.2-6.5 S30.12- 73.9 75.2 66.4---
2024-05-19 09:30 amESE 13.6 17.5----30.12- 73.8 75.2 66.2---
2024-05-19 09:20 amESE 15.5 19.4 6.9 86.4 SE30.11- 73.8 75.2 66.2---
2024-05-19 09:10 amESE 15.5 19.4 6.9-6.4 SE30.11- 73.6 75.2 66.2---
2024-05-19 09:00 amESE 15.5 19.4----30.11+0.04 73.8 75.2 66.2---
2024-05-19 08:50 am E 13.6 17.5 6.6 86.5 SE30.11- 73.6- 66.6---
2024-05-19 08:40 am E 13.6 17.5----30.10- 73.6 75.2 66.6---
2024-05-19 08:30 am E 13.6 17.5----30.10- 73.4 75.2 66.2---
2024-05-19 08:20 am E 13.6 17.5 6.9 86.5 SE30.10- 73.4 75.2 66.2---
2024-05-19 08:10 am E 13.6 17.5 6.9-6.5 SE30.10- 73.2 75.2 66.0---
2024-05-19 08:00 am E 13.6 17.5----30.10+0.04 73.4 75.2 66.6---
2024-05-19 07:50 am E 13.6 17.5 6.9 76.6ESE30.09- 73.4 75.2 66.4---
2024-05-19 07:40 am E 15.5 19.4----30.09- 73.4 75.2 66.4---
2024-05-19 07:30 am E 13.6 17.5----30.09- 73.6 75.2 66.4---
2024-05-19 07:20 amESE 15.5 19.4 6.9 86.4 SE30.08- 73.6 75.2 66.0---
2024-05-19 07:10 am E 15.5 19.4 6.9-6.4 SE30.09- 73.8 75.2 66.2---
2024-05-19 07:00 am E 13.6 17.5----30.08+0.02 73.6 75.2 65.5---
2024-05-19 06:50 am E 13.6 19.4 6.9 196.6 SW30.08- 73.6- 66.2---
2024-05-19 06:40 am E 13.6 17.5 6.9-6.6 SW30.08- 73.2 75.2 65.8---
2024-05-19 06:30 am E 13.6 17.5----30.08- 72.9 75.2 65.8---
2024-05-19 06:20 am E 15.5 17.5 6.9 86.4 SE30.08- 73.0 75.2 65.8---
2024-05-19 06:10 amESE 15.5 19.4 6.9-6.4 SE30.08- 73.4 75.2 65.7---
2024-05-19 06:00 amESE 15.5 19.4----30.07+0.06 73.2 75.2 65.7---
2024-05-19 05:50 amESE 15.5 19.4 7.2 86.6 SE30.06- 73.0 75.2 66.6---
2024-05-19 05:40 amESE 15.5 17.5----30.06- 72.9 75.2 66.9---
2024-05-19 05:30 am E 13.6 17.5----30.06- 72.7 75.2 67.1---
2024-05-19 05:20 am E 15.5 17.5 6.9 76.3 SE30.06- 72.5 75.2 67.5---
2024-05-19 05:10 amESE 17.5 21.4 6.9-6.3 SE30.06- 72.9 75.2 67.1---
2024-05-19 05:00 amESE 15.5 19.4----30.06+0.01 73.6 75.2 66.4---
2024-05-19 04:50 amESE 15.5 19.4 6.2 76.3ESE30.05- 73.6 75.2 66.9---
2024-05-19 04:40 amESE 15.5 19.4----30.05- 73.4 75.2 67.1---
2024-05-19 04:30 amESE 11.7 17.5----30.05- 72.9 75.2 66.9---
2024-05-19 04:20 amESE 13.6 17.5 6.9 66.2ESE30.05- 73.4 75.2 66.9---
2024-05-19 04:10 am SE 11.7 15.5 6.9-6.2ESE30.06- 73.4 75.2 66.6---
2024-05-19 04:00 am SE 11.7 15.5----30.06+0.00 73.4 75.2 66.9---
2024-05-19 03:50 amESE 11.7 17.5 6.9 86.5 SE30.05- 73.2 75.2 66.9---
2024-05-19 03:40 amESE 13.6 17.5----30.04- 73.2 75.2 66.7---
2024-05-19 03:30 am SE 13.6 19.4----30.03- 73.0 75.2 66.2---
2024-05-19 03:20 amESE 15.5 21.4 6.6 76.3ESE30.03- 72.7 75.2 66.4---
2024-05-19 03:10 amESE 17.5 23.3 6.6-6.3ESE30.02- 72.7 75.2 66.2---
2024-05-19 03:00 amESE 19.4 25.3----30.01-0.09 72.3 75.2 66.7---
2024-05-19 02:50 amESE 21.4 27.2 6.6 76.4ESE30.01- 72.1 75.2 67.5---
2024-05-19 02:40 amESE 19.4 25.3----30.01- 73.2 75.2 66.9---
2024-05-19 02:30 amESE 17.5 21.4----30.02- 73.6 75.2 66.0---
2024-05-19 02:20 amESE 15.5 19.4 6.2 86.4 SE30.03- 73.6 75.2 66.2---
2024-05-19 02:10 amESE 15.5 19.4 6.2-6.4 SE30.03- 73.8 75.2 66.0---
2024-05-19 02:00 amESE 13.6 17.5----30.05-0.07 73.8 75.2 65.5---
2024-05-19 01:50 amESE 13.6 17.5 6.2 76.5ESE30.06- 73.8 75.2 65.5---
2024-05-19 01:40 amESE 13.6 15.5----30.06- 73.9 75.2 65.5---
2024-05-19 01:30 am SE 13.6 17.5----30.07- 73.9 75.2 64.6---
2024-05-19 01:20 am SE 13.6 17.5 6.2 86.3 SE30.07- 73.9 75.2 64.4---
2024-05-19 01:10 am SE 13.6 17.5 6.2-6.3 SE30.07- 73.8 75.2 64.9---
2024-05-19 01:00 amESE 13.6 17.5----30.06-0.06 73.8 75.2 65.7---
2024-05-19 12:50 amESE 13.6 17.5 6.2 166.5 S30.07- 73.8 75.2 65.7---
2024-05-19 12:40 amESE 13.6 17.5 6.2-6.5 S30.08- 73.9 75.2 65.5---
2024-05-19 12:30 amESE 13.6 17.5----30.09- 73.9 75.2 65.1---
2024-05-19 12:20 am--- 5.6-6.2 SE30.09-------
2024-05-19 12:10 amESE 13.6 17.5 5.6-6.2 SE30.09- 73.9 75.2 65.3---
2024-05-19 12:00 amESE 13.6 17.5----30.10-0.02 73.9 75.2 65.1---
2024-05-18 11:50 pmESE 11.7 15.5 6.6 76.4 SE30.10- 74.1 75.2 65.7---
2024-05-18 11:40 pmESE 11.7 15.5----30.10- 74.1 75.2 65.8---
2024-05-18 11:30 pmESE 11.7 15.5----30.11- 74.3 75.2 65.5---
2024-05-18 11:20 pmESE 11.7 15.5 5.9 86.3 SE30.11- 74.1 75.2 65.3---
2024-05-18 11:10 pmESE 11.7 17.5 5.9-6.3 SE30.12- 74.1 75.2 65.8---
2024-05-18 11:00 pmESE 13.6 15.5----30.12+0.04 74.1 75.2 65.3---
2024-05-18 10:50 pmESE 13.6 15.5 5.9 76.3ESE30.12- 74.1 75.2 65.3---
2024-05-18 10:40 pmESE 13.6 15.5 5.9-6.3ESE30.12- 74.1 75.2 65.1---
2024-05-18 10:30 pmESE 13.6 17.5----30.12- 74.1 75.2 66.0---
2024-05-18 10:20 pmESE 13.6 17.5 5.9 76.3ESE30.12- 74.3 75.2 66.0---
2024-05-18 10:10 pm E 13.6 17.5 5.9-6.3ESE30.12- 74.3 75.2 66.0---
2024-05-18 10:00 pm E 13.6 17.5----30.13+0.05 74.1 75.2 66.4---
2024-05-18 09:50 pm E 13.6 15.5 5.9 76.2ESE30.13- 74.3 75.2 66.7---
2024-05-18 09:40 pm E 11.7 15.5----30.12- 74.3 75.2 66.6---
2024-05-18 09:30 pm E 13.6 15.5----30.12- 74.3 75.2 66.2---
2024-05-18 09:20 pm E 13.6 15.5 5.9 76.2 E30.11- 74.3 75.4 66.0---
2024-05-18 09:10 pm E 13.6 15.5 5.9-6.2 E30.11- 74.3 75.2 66.6---
2024-05-18 09:00 pm E 13.6 17.5----30.11+0.06 74.3 75.2 66.2---
2024-05-18 08:50 pm E 13.6 17.5 6.2 76.2ESE30.11- 74.3 75.2 66.4---
2024-05-18 08:40 pm E 13.6 17.5----30.11- 74.3 75.2 66.9---
2024-05-18 08:30 pm E 13.6 17.5----30.10- 74.5 75.2 66.7---
2024-05-18 08:20 pm E 13.6 17.5 6.9 76.4ESE30.10- 74.3 75.4 66.4---
2024-05-18 08:10 pmESE 11.7 15.5 6.9-6.4ESE30.09- 74.5 75.4 66.7---
2024-05-18 08:00 pm E 13.6 17.5----30.09+0.04 74.3 75.4 66.2---
2024-05-18 07:50 pm E 13.6 15.5 6.2 76.3 E30.08- 74.3 75.4 66.6---
2024-05-18 07:40 pmESE 11.7 15.5----30.09- 74.5 75.4 66.6---
2024-05-18 07:30 pmESE 13.6 15.5----30.08- 74.3 75.4 66.2---
2024-05-18 07:20 pm E 13.6 15.5 5.9 76.2ESE30.08- 74.3 75.4 66.2---
2024-05-18 07:10 pm E 13.6 15.5----30.08- 74.3 75.4 66.6---
2024-05-18 07:00 pmESE 11.7 15.5----30.08+0.04 74.5 75.4 66.7---
2024-05-18 06:50 pmESE 11.7 13.6 6.2 76.3ESE30.08- 74.5 75.4 66.7---
2024-05-18 06:40 pmESE 9.7 13.6----30.08- 74.5 75.4 66.6---
2024-05-18 06:30 pmESE 9.7 11.7----30.07- 74.5 75.4 66.9---
2024-05-18 06:20 pmESE 7.8 11.7 6.2 76.2ESE30.06- 74.5 75.4 66.9---
2024-05-18 06:10 pm E 7.8 11.7 6.2-6.2ESE30.06- 74.5 75.4 66.9---
2024-05-18 06:00 pmESE 7.8 11.7----30.06+0.02 74.5 75.4 66.6---
2024-05-18 05:50 pmESE 7.8 11.7 6.2 76.4ESE30.06- 74.5 75.4 66.4---
2024-05-18 05:40 pmESE 9.7 11.7----30.06- 74.5 75.4 66.2---
2024-05-18 05:30 pmESE 7.8 11.7----30.06- 74.5 75.4 66.4---
2024-05-18 05:20 pmESE 7.8 11.7 5.9 76.0ESE30.06- 74.5 75.4 66.6---
2024-05-18 05:10 pm E 7.8 9.7 5.9-6.0ESE30.06- 74.5 75.4 66.7---
2024-05-18 05:00 pm E 9.7 11.7----30.05+0.01 74.7 75.4 66.6---
2024-05-18 04:50 pmESE 7.8 11.7 6.2 76.1ESE30.05- 74.7 75.4 66.4---
2024-05-18 04:40 pm E 9.7 11.7----30.05- 74.5 75.4 66.2---
2024-05-18 04:30 pm E 9.7 13.6----30.04- 74.5 75.4 66.4---
2024-05-18 04:20 pm E 9.7 13.6 6.2 76.1 E30.04- 74.5 75.4 66.7---
2024-05-18 04:10 pmESE 9.7 13.6 6.2-6.1 E30.04- 74.5 75.4 66.7---
2024-05-18 04:00 pm E 11.7 13.6----30.04+0.00 74.7 75.4 66.7---
2024-05-18 03:50 pm E 11.7 13.6 6.2 66.0ESE30.03- 74.7 75.4 66.4---
2024-05-18 03:40 pmESE 11.7 15.5 6.2-6.0ESE30.04- 74.7 75.4 66.4---
2024-05-18 03:30 pmESE 11.7 15.5----30.04- 74.7 75.4 66.7---
2024-05-18 03:20 pm E 11.7 15.5 6.6 76.1ESE30.03- 74.7 75.4 67.1---
2024-05-18 03:10 pm E 11.7 13.6 6.6-6.1ESE30.04- 74.7 75.4 66.9---
2024-05-18 03:00 pmESE 11.7 15.5----30.04+0.00 74.7 75.4 66.6---
2024-05-18 02:50 pm E 11.7 15.5 6.6 75.9ESE30.03- 74.7 75.4 67.3---
2024-05-18 02:40 pm E 11.7 15.5----30.03- 74.8 75.4 67.5---
2024-05-18 02:30 pm E 13.6 15.5----30.03- 74.7 75.4 67.3---
2024-05-18 02:20 pm E 13.6 15.5 6.2 76.0ESE30.03- 74.7 75.4 67.6---
2024-05-18 02:10 pm E 11.7 15.5 6.2-6.0ESE30.03- 74.7 75.4 67.6---
2024-05-18 02:00 pmESE 11.7 15.5----30.03+0.00 74.8 75.4 67.6---
2024-05-18 01:50 pmESE 13.6 17.5 6.9 66.0 E30.04- 74.7 75.4 67.6---
2024-05-18 01:40 pmESE 13.6 17.5----30.03- 74.7 75.4 67.8---
2024-05-18 01:10 pmESE 15.5 17.5 6.2-5.9 E30.03- 74.7 75.4 68.2---
2024-05-18 01:00 pmESE 15.5 19.4----30.03-0.01 74.7 75.4 68.0---
2024-05-18 12:50 pmESE 15.5 19.4 6.6 65.9 E30.03- 74.7 75.4 68.4---
2024-05-18 12:40 pmESE 17.5 21.4 6.6-5.9 E30.02- 74.7 75.4 68.4---
2024-05-18 12:30 pm E 17.5 23.3----30.02- 74.5 75.4 68.2---
2024-05-18 12:20 pm E 17.5 21.4 5.9 65.8ESE30.02- 74.5 75.4 68.4---
2024-05-18 12:10 pm E 17.5 21.4 5.9-5.8ESE30.03- 74.7 75.4 68.5---
2024-05-18 12:00 pm E 17.5 21.4----30.04+0.00 74.5 75.4 68.0---
2024-05-18 11:50 amESE 15.5 19.4 6.6 76.0 E30.05- 74.5 75.4 68.4---

Detailed Wave Summary
for 51000 as of (12:10 pm HAST)
2210 GMT on 05/19/2024:

These wave data are displayed in rounded times.

     

Click on the graph icon in the table below to see a time series plot of the last five days of that observation.

5-day plot - Significant Wave Height Significant Wave Height (WVHT): 6.6 ft
5-day plot - Wave Steepness Wave Steepness (STEEPNESS): AVERAGE
5-day plot - Average Wave Period Average Wave Period (APD): 6.5 sec
Previous observations
TIME
(HAST)
5-day plot - Wave Height
WVHT
ft
5-day plot - Swell Height
SwH
ft
5-day plot - Swell Period
SwP
sec
5-day plot - Swell Direction
SwD
 
5-day plot - Wind Wave Height
WWH
ft
5-day plot - Wind Wave Period
WWP
sec
5-day plot - Wind Wave Direction
WWD
 
5-day plot - Wave Steepness
STEEPNESS
 
5-day plot - Average Wave Period
APD
sec
2024-05-19 11:40 am 7.5------ STEEP 6.6
2024-05-19 11:10 am 6.6------ STEEP 6.5
2024-05-19 10:40 am 6.9------ STEEP 6.5
2024-05-19 10:10 am 6.6------ STEEP 6.4
2024-05-19 09:40 am 6.2------ N/A 6.5
2024-05-19 09:10 am 6.9------ STEEP 6.4
2024-05-19 08:40 am 6.6------ AVERAGE 6.5
2024-05-19 08:10 am 6.9------ AVERAGE 6.5
2024-05-19 07:40 am 6.9------ STEEP 6.6
2024-05-19 07:10 am 6.9------ STEEP 6.4
2024-05-19 06:40 am 6.9------ N/A 6.6
2024-05-19 06:10 am 6.9------ STEEP 6.4
2024-05-19 05:40 am 7.2------ STEEP 6.6
2024-05-19 05:10 am 6.9------ STEEP 6.3
2024-05-19 04:40 am 6.2------ STEEP 6.3
2024-05-19 04:10 am 6.9------VERY_STEEP 6.2
2024-05-19 03:40 am 6.9------ STEEP 6.5
2024-05-19 03:10 am 6.6------ STEEP 6.3
2024-05-19 02:40 am 6.6------ STEEP 6.4
2024-05-19 02:10 am 6.2------ STEEP 6.4
2024-05-19 01:40 am 6.2------ STEEP 6.5
2024-05-19 01:10 am 6.2------ STEEP 6.3
2024-05-19 12:40 am 6.2------ N/A 6.5
2024-05-19 12:10 am 5.6------ STEEP 6.2
2024-05-18 11:40 pm 6.6------ STEEP 6.4
2024-05-18 11:10 pm 5.9------ STEEP 6.3
2024-05-18 10:40 pm 5.9------ STEEP 6.3
2024-05-18 10:10 pm 5.9------ STEEP 6.3
2024-05-18 09:40 pm 5.9------ STEEP 6.2
2024-05-18 09:10 pm 5.9------ STEEP 6.2
2024-05-18 08:40 pm 6.2------ STEEP 6.2
2024-05-18 08:10 pm 6.9------ STEEP 6.4
2024-05-18 07:40 pm 6.2------ STEEP 6.3
2024-05-18 07:10 pm 5.9------ STEEP 6.2
2024-05-18 06:40 pm 6.2------ STEEP 6.3
2024-05-18 06:10 pm 6.2------ STEEP 6.2
2024-05-18 05:40 pm 6.2------ STEEP 6.4
2024-05-18 05:10 pm 5.9------ STEEP 6.0
2024-05-18 04:40 pm 6.2------ STEEP 6.1
2024-05-18 04:10 pm 6.2------ STEEP 6.1
2024-05-18 03:40 pm 6.2------VERY_STEEP 6.0
2024-05-18 03:10 pm 6.6------ STEEP 6.1
2024-05-18 02:40 pm 6.6------ STEEP 5.9
2024-05-18 02:10 pm 6.2------ STEEP 6.0
2024-05-18 01:40 pm 6.9------VERY_STEEP 6.0
2024-05-18 01:10 pm 6.2------VERY_STEEP 5.9
2024-05-18 12:40 pm 6.6------VERY_STEEP 5.9
2024-05-18 12:10 pm 5.9------VERY_STEEP 5.8

Plot of wave energy versus frequency (and period)